• In Hungary
  • List of Countries
  • For 7 days
  • Water Temperature
  • Satellite Maps
  • Weather Map
  • News
  • Weather Widgets
  • user-avatar
    Login

    Hourly Weather Kyuryag

    Today, 22 July, Sunday

    Time Temperature Precipitation Wind Pressure Humidity
    00:00 +19°C° 0 mm 1 mps 664 mmHg 77%
    01:00 +19°C° 0 mm 1 mps 664 mmHg 77%
    02:00 +19°C° 0 mm 1 mps 664 mmHg 77%
    03:00 +18°C° 0 mm 2 mps 663 mmHg 77%
    04:00 +20°C° 0.1 mm 1 mps 664 mmHg 75%
    05:00 +21°C° 0.1 mm 1 mps 664 mmHg 73%
    06:00 +21°C° 0.1 mm 1 mps 664 mmHg 71%
    07:00 +23°C° 0.1 mm 2 mps 665 mmHg 67%
    08:00 +24°C° 0.1 mm 2 mps 665 mmHg 64%
    09:00 +25°C° 0.1 mm 2 mps 665 mmHg 61%
    10:00 +25°C° 0.4 mm 2 mps 665 mmHg 60%
    11:00 +26°C° 0.4 mm 3 mps 665 mmHg 58%
    12:00 +26°C° 0.4 mm 3 mps 665 mmHg 57%
    13:00 +26°C° 0.6 mm 3 mps 664 mmHg 59%
    14:00 +26°C° 0.6 mm 3 mps 664 mmHg 60%
    15:00 +25°C° 0 mm 4 mps 664 mmHg 60%
    16:00 +25°C° 0.1 mm 3 mps 664 mmHg 61%
    17:00 +24°C° 0.1 mm 3 mps 664 mmHg 62%
    18:00 +24°C° 0.1 mm 2 mps 664 mmHg 64%
    19:00 +21°C° 0.1 mm 2 mps 663 mmHg 68%
    20:00 +20°C° 0.1 mm 2 mps 663 mmHg 72%
    21:00 +19°C° 0.1 mm 1 mps 663 mmHg 75%
    22:00 +19°C° 0 mm 1 mps 663 mmHg 75%
    23:00 +19°C° 0 mm 1 mps 663 mmHg 74%

    Tomorrow, 23 July, Monday

    Time Temperature Precipitation Wind Pressure Humidity
    00:00 +19°C° 0 mm 1 mps 663 mmHg 73%
    01:00 +19°C° 0 mm 1 mps 663 mmHg 73%
    02:00 +19°C° 0 mm 1 mps 663 mmHg 73%
    03:00 +19°C° 0 mm 1 mps 662 mmHg 73%
    04:00 +19°C° 0 mm 1 mps 663 mmHg 71%
    05:00 +20°C° 0 mm 1 mps 663 mmHg 69%
    06:00 +21°C° 0 mm 1 mps 663 mmHg 67%
    07:00 +23°C° 0 mm 1 mps 663 mmHg 63%
    08:00 +24°C° 0 mm 2 mps 664 mmHg 58%
    09:00 +26°C° 0 mm 2 mps 664 mmHg 54%
    10:00 +26°C° 0.3 mm 3 mps 664 mmHg 53%
    11:00 +27°C° 0.3 mm 3 mps 664 mmHg 52%
    12:00 +27°C° 0.3 mm 4 mps 663 mmHg 51%
    13:00 +27°C° 0.4 mm 4 mps 663 mmHg 52%
    14:00 +27°C° 0.4 mm 3 mps 663 mmHg 53%
    15:00 +27°C° 0.4 mm 3 mps 662 mmHg 54%
    16:00 +26°C° 0.2 mm 3 mps 662 mmHg 58%
    17:00 +25°C° 0.2 mm 2 mps 662 mmHg 62%
    18:00 +24°C° 0.2 mm 2 mps 662 mmHg 67%
    19:00 +23°C° 0.3 mm 2 mps 662 mmHg 71%
    20:00 +21°C° 0.3 mm 1 mps 662 mmHg 75%
    21:00 +20°C° 0.3 mm 1 mps 662 mmHg 80%
    22:00 +20°C° 0 mm 1 mps 662 mmHg 78%
    23:00 +20°C° 0 mm 1 mps 662 mmHg 76%

    Day after tomorrow, 24 July, Tuesday

    Time Temperature Precipitation Wind Pressure Humidity
    00:00 +20°C° 0 mm 1 mps 662 mmHg 74%
    01:00 +19°C° 0.2 mm 2 mps 662 mmHg 74%
    02:00 +19°C° 0.2 mm 2 mps 662 mmHg 75%
    03:00 +19°C° 0.2 mm 2 mps 662 mmHg 75%
    04:00 +20°C° 0 mm 2 mps 662 mmHg 73%
    05:00 +20°C° 0 mm 2 mps 662 mmHg 71%
    06:00 +21°C° 0 mm 2 mps 662 mmHg 70%
    07:00 +23°C° 0 mm 2 mps 663 mmHg 66%
    08:00 +25°C° 0 mm 3 mps 663 mmHg 62%
    09:00 +26°C° 0 mm 3 mps 663 mmHg 58%
    10:00 +27°C° 0 mm 3 mps 663 mmHg 57%
    11:00 +28°C° 0 mm 3 mps 664 mmHg 55%
    12:00 +29°C° 0 mm 3 mps 664 mmHg 54%
    13:00 +28°C° 0.1 mm 3 mps 663 mmHg 56%
    14:00 +28°C° 0.1 mm 3 mps 663 mmHg 58%
    15:00 +28°C° 0.1 mm 3 mps 663 mmHg 60%
    16:00 +27°C° 0.1 mm 3 mps 663 mmHg 64%
    17:00 +26°C° 0.1 mm 2 mps 663 mmHg 68%
    18:00 +26°C° 0.1 mm 2 mps 663 mmHg 72%
    19:00 +24°C° 0 mm 2 mps 663 mmHg 74%
    20:00 +23°C° 0 mm 1 mps 663 mmHg 76%
    21:00 +21°C° 0 mm 1 mps 663 mmHg 79%
    22:00 +21°C° 0 mm 1 mps 663 mmHg 73%
    23:00 +21°C° 0 mm 1 mps 663 mmHg 68%

    25 July, Wednesday

    Time Temperature Precipitation Wind Pressure Humidity
    00:00 +20°C° 0 mm 2 mps 663 mmHg 62%
    01:00 +20°C° 0 mm 2 mps 663 mmHg 60%
    02:00 +20°C° 0 mm 2 mps 663 mmHg 58%
    03:00 +20°C° 0 mm 2 mps 663 mmHg 55%
    04:00 +21°C° 0 mm 2 mps 663 mmHg 56%
    05:00 +21°C° 0 mm 2 mps 663 mmHg 56%
    06:00 +23°C° 0 mm 2 mps 663 mmHg 56%
    07:00 +26°C° 0 mm 2 mps 664 mmHg 51%
    08:00 +28°C° 0 mm 2 mps 664 mmHg 46%
    09:00 +30°C° 0 mm 2 mps 664 mmHg 41%
    10:00 +31°C° 0 mm 2 mps 664 mmHg 40%
    11:00 +33°C° 0 mm 3 mps 664 mmHg 39%
    12:00 +34°C° 0 mm 3 mps 664 mmHg 38%
    13:00 +34°C° 0 mm 4 mps 664 mmHg 40%
    14:00 +33°C° 0 mm 4 mps 664 mmHg 41%
    15:00 +33°C° 0 mm 4 mps 664 mmHg 42%
    16:00 +31°C° 0 mm 3 mps 664 mmHg 47%
    17:00 +30°C° 0 mm 3 mps 663 mmHg 52%
    18:00 +29°C° 0 mm 3 mps 663 mmHg 57%
    19:00 +27°C° 0 mm 2 mps 663 mmHg 59%
    20:00 +26°C° 0 mm 2 mps 663 mmHg 61%
    21:00 +24°C° 0 mm 2 mps 663 mmHg 63%
    22:00 +24°C° 0 mm 2 mps 663 mmHg 61%
    23:00 +24°C° 0 mm 2 mps 663 mmHg 59%

    26 July, Thursday

    Time Temperature Precipitation Wind Pressure Humidity
    00:00 +23°C° 0 mm 2 mps 663 mmHg 56%
    01:00 +23°C° 0 mm 2 mps 663 mmHg 54%
    02:00 +23°C° 0 mm 2 mps 663 mmHg 52%
    03:00 +23°C° 0 mm 2 mps 663 mmHg 50%
    04:00 +24°C° 0.1 mm 2 mps 663 mmHg 51%
    05:00 +24°C° 0.1 mm 2 mps 663 mmHg 51%
    06:00 +25°C° 0.1 mm 2 mps 663 mmHg 51%
    07:00 +27°C° 0.1 mm 3 mps 664 mmHg 47%
    08:00 +29°C° 0.1 mm 3 mps 665 mmHg 43%
    09:00 +32°C° 0.1 mm 4 mps 665 mmHg 38%
    10:00 +33°C° 0 mm 4 mps 665 mmHg 37%
    11:00 +34°C° 0 mm 5 mps 665 mmHg 36%
    12:00 +35°C° 0 mm 5 mps 665 mmHg 35%
    13:00 +34°C° 0.1 mm 5 mps 665 mmHg 35%
    14:00 +34°C° 0.1 mm 5 mps 665 mmHg 36%
    15:00 +34°C° 0.1 mm 5 mps 665 mmHg 37%
    16:00 +32°C° 0.1 mm 5 mps 665 mmHg 39%
    17:00 +30°C° 0.1 mm 4 mps 665 mmHg 42%
    18:00 +29°C° 0.1 mm 3 mps 664 mmHg 45%
    19:00 +27°C° 0.1 mm 3 mps 664 mmHg 47%
    20:00 +26°C° 0.1 mm 2 mps 664 mmHg 48%
    21:00 +24°C° 0.1 mm 2 mps 664 mmHg 50%
    22:00 +24°C° 0 mm 2 mps 664 mmHg 50%
    23:00 +24°C° 0 mm 1 mps 664 mmHg 49%

    27 July, Friday

    Time Temperature Precipitation Wind Pressure Humidity
    00:00 +24°C° 0 mm 1 mps 664 mmHg 49%
    01:00 +23°C° 0 mm 1 mps 664 mmHg 49%
    02:00 +23°C° 0 mm 1 mps 664 mmHg 49%
    03:00 +23°C° 0 mm 1 mps 664 mmHg 49%
    04:00 +23°C° 0 mm 2 mps 664 mmHg 49%
    05:00 +24°C° 0 mm 2 mps 664 mmHg 49%
    06:00 +24°C° 0 mm 2 mps 665 mmHg 49%
    07:00 +26°C° 0 mm 3 mps 665 mmHg 44%
    08:00 +29°C° 0 mm 4 mps 666 mmHg 39%
    09:00 +32°C° 0 mm 5 mps 666 mmHg 33%
    10:00 +32°C° 0 mm 5 mps 666 mmHg 32%
    11:00 +33°C° 0 mm 6 mps 666 mmHg 31%
    12:00 +34°C° 0 mm 6 mps 666 mmHg 29%
    13:00 +33°C° 0 mm 6 mps 666 mmHg 30%
    14:00 +33°C° 0 mm 6 mps 666 mmHg 31%
    15:00 +33°C° 0 mm 6 mps 665 mmHg 32%
    16:00 +30°C° 0 mm 5 mps 665 mmHg 36%
    17:00 +29°C° 0 mm 5 mps 665 mmHg 40%
    18:00 +28°C° 0 mm 4 mps 665 mmHg 44%
    19:00 +26°C° 0 mm 3 mps 665 mmHg 46%
    20:00 +24°C° 0 mm 3 mps 665 mmHg 49%
    21:00 +21°C° 0 mm 2 mps 665 mmHg 51%
    22:00 +21°C° 0 mm 2 mps 665 mmHg 51%
    23:00 +21°C° 0 mm 2 mps 664 mmHg 50%
    Show more